Location: Unspecified
(0.0000°N, 0.0000°E)
Time: 13:51:33
(UTC+00:00)

Tiros 1 despin weight - Pass Details

Date: 23 November 2019
Orbit: 594 x 642 km, 48.2° (Epoch: 08 December)

Event Time Altitude Azimuth Distance (km) Brightness Sun altitude
Rises 18:52:33 0° 357° (N) 2,865 ? -15.5°
Enters shadow 18:53:54 - 6° (N) 2,491 ? -15.8°
Reaches altitude 10° 18:56:35 10° 33° (NNE) 1,978 - -16.4°
Maximum altitude 18:57:55 11° 50° (NE) 1,911 - -16.7°
Drops below altitude 10° 18:59:14 10° 67° (ENE) 1,990 - -17.0°
Sets 19:03:20 0° 102° (ESE) 2,913 - -18.0°
